Home   Weather   Houmt Souk (Djerba)   Past weeks

Flag for Tunisia Past Weather in Houmt Souk (Djerba), Tunisia — Yesterday and Last 2 Weeks

84 °F

Passing clouds.

Feels Like: 87 °F
Forecast: 79 / 92 °F
Wind: 13 mph from Southeast

Location: Djerba Mellita

Current Time: Oct 22, 2016 at 2:31:17 PM

Latest Report: Oct 22, 2016 at 2:00 PM

Visibility: N/A

Pressure: 29.92 "Hg

Humidity: 58%

Dew Point: 68 °F

Location of Houmt Souk (Djerba)Location

Past Weather in Houmt Souk (Djerba) — Graph


Houmt Souk (Djerba) Temperature Yesterday

Maximum temperature yesterday: 88 °F (at 11:30 AM)
Minimum temperature yesterday: 68 °F (at 3:30 AM)
Average temperature yesterday: 77 °F

High & Low Weather Summary for the Past Weeks

High100 °F (Oct 13, 2:30 PM)94% (Oct 9, 7:00 AM)30.15 "Hg (Oct 9, 7:00 AM)
Low66 °F (Oct 20, 5:00 AM)14% (Oct 13, 2:30 PM)29.68 "Hg (Oct 14, 2:00 AM)
Average78 °F65%29.96 "Hg
* Reported Oct 7 1:00 PM — Oct 22 1:30 PM, Houmt Souk (Djerba), Weather by CustomWeather, © 2016

Note: Actual official high and low records may vary slightly from our data, if they occured in-between our weather recording intervals... More about our weather records


Houmt Souk (Djerba) Weather History for the Previous 24 Hours

Scroll right to see more
Time TempWeatherWind HumidityBarometerVisibility
1:30 PM
Sat, Oct 22
84 °FPassing clouds.12 mph55%29.92 "HgN/A
1:00 PM84 °FPassing clouds.12 mph55%29.95 "HgN/A
12:30 PM84 °FPassing clouds.13 mph55%29.95 "HgN/A
12:00 PM84 °FPassing clouds.10 mph55%29.98 "HgN/A
11:30 AM84 °FPassing clouds.12 mph55%29.98 "HgN/A
11:00 AM82 °FPassing clouds.12 mph55%29.98 "HgN/A
10:30 AM82 °FPassing clouds.12 mph58%29.98 "HgN/A
10:00 AM82 °FPassing clouds.10 mph58%29.98 "HgN/A
9:30 AM81 °FPassing clouds.10 mph62%29.98 "HgN/A
9:00 AM81 °FSunny.10 mph66%29.98 "Hg10 mi
8:30 AM79 °FSunny.12 mph70%29.98 "Hg10 mi
8:00 AM77 °FSunny.5 mph69%29.95 "Hg10 mi
7:30 AM73 °FSunny.3 mph74%29.95 "Hg10 mi
7:00 AM72 °FClear.2 mph78%29.95 "Hg5 mi
6:30 AM72 °FClear.2 mph78%29.95 "Hg5 mi
6:00 AM73 °FClear.6 mph74%29.95 "Hg5 mi
5:30 AM72 °FMild.5 mph78%29.95 "HgN/A
5:00 AM72 °FClear.3 mph78%29.95 "Hg5 mi
4:30 AM72 °FClear.2 mph78%29.95 "Hg5 mi
4:00 AM73 °FMild.3 mph74%29.95 "HgN/A
3:30 AM75 °FPassing clouds.5 mph65%29.95 "Hg5 mi
3:00 AM77 °FPassing clouds.6 mph65%29.95 "Hg5 mi
2:30 AM77 °FPassing clouds.8 mph69%29.92 "Hg5 mi
2:00 AM75 °FPassing clouds.10 mph69%29.92 "Hg5 mi
1:00 AM77 °FPassing clouds.9 mph65%29.95 "Hg5 mi
12:30 AM77 °FPassing clouds.6 mph65%29.95 "Hg5 mi
12:00 AM77 °FPassing clouds.8 mph69%29.92 "Hg5 mi
11:30 PM
Fri, Oct 21
77 °FPassing clouds.6 mph74%29.92 "Hg5 mi
11:00 PM77 °FClear.5 mph74%29.95 "Hg10 mi
10:30 PM77 °FClear.6 mph74%29.92 "Hg10 mi
10:00 PM77 °FClear.6 mph79%29.92 "Hg10 mi
9:30 PM77 °FClear.7 mph79%29.89 "Hg10 mi
9:00 PM77 °FClear.7 mph79%29.89 "Hg10 mi
8:30 PM77 °FClear.6 mph79%29.89 "Hg10 mi
8:00 PM77 °FClear.8 mph83%29.89 "Hg10 mi
7:30 PM79 °FClear.5 mph74%29.89 "Hg10 mi
7:00 PM79 °FClear.7 mph74%29.86 "Hg10 mi
6:30 PM79 °FClear.8 mph74%29.86 "Hg10 mi
6:00 PM79 °FClear.9 mph74%29.86 "Hg10 mi
5:00 PM82 °FSunny.8 mph58%29.86 "Hg10 mi
4:30 PM82 °FSunny.8 mph55%29.83 "Hg10 mi
4:00 PM84 °FSunny.7 mph48%29.83 "Hg10 mi
3:30 PM84 °FSunny.7 mph48%29.83 "Hg10 mi
3:00 PM86 °FSunny.8 mph49%29.83 "Hg10 mi
2:30 PM84 °FPassing clouds.7 mph45%29.83 "HgN/A
2:00 PM84 °FSunny.7 mph48%29.83 "Hg10 mi
Weather by CustomWeather, © 2016

See weather overviewHow to use our weather pages